DELTA 1 DEB, 12533

Orbit data source: Space-Track

DELTA 1 DEB, 12533 is space debris in SSO originally from a launch on Thu, 29 Jul 1976 UTC launched from the Air Force Western Test Range (AFWTR). Debris objects in space refer to the collection of defunct objects orbiting the Earth. Examples of debris include non-operational satellites, rocket bodies, and fragments generated from explosions, collisions, or faulty payload assembly.

Loading next visibility...
Identifier
12533, 1976-077DN
Orbit
SSO
Country
Flag of USUS
Related business
Manufacturer
Unknown
Mission
Spacecraft
Bus & Motor
Unknown
Mass
Unknown
Launch date (UTC)
1976-07-29 (50 years ago)
Launch vehicle
Unknown
Launch site
Air Force Western Test Range (AFWTR)
Object type
Payload
Rocket body
Debris
Shape & HBR
Unknown shape, 0.2 m
Radar Cross Section
Small (<0.1 m²)

Expand to show TLE details & history
Last TLE update: 1 day ago

TLE from 1 day ago
0 DELTA 1 DEB
1 12533U 76077DN  26033.35289029 -.00000027  00000-0  11456-3 0  9993
2 12533 101.7387   2.4622 0057986 178.8485 341.1220 12.47367182139473
Epoch: 2026-02-02T08:28Z
TLE epoch observation values (Epoch: 2026-02-02T08:28:09.721Z)
Latitude
19.80888°
Longitude
-72.85648°
Altitude
1,434.626 km
Speed
7.165 km/s
True Right ascension
12h 26m 56s
True Declination
19° 42' 32"
Sunlit
Object was in full shadow at epoch
Visualization orbit readout
Latitude
Unknown
Longitude
Unknown
Altitude
Unknown
Speed
Unknown
Apparent Right ascension
Unknown
Apparent Declination
Unknown
Sunlit
N/A
Visualization observer readout
Local Sidereal Time
11:43:09
Azimuth
Unknown
Elevation
Unknown
Doppler factor
Unknown
Orbital elements
Apogee altitude
1,518.602 km
Perigee altitude
1,427.55 km
Semi-major axis
7,851.213 km
Eccentricity
0.0058
Inclination
101.7387°
RAAN
2.4622°
Arg. of periapsis
178.8485°
True anomaly
340.90552°
Mean anomaly
341.122°
Eccentric anomaly
341.01391°
Mean motion
3.11988 °/min
Orbital period
115.39 mins
BSTAR
0.00011456
Loading maneuver chart data...
Computing Atmospheric mass density...
Loading historical data...
Loading historical data...
Loading historical data...
Loading historical data...
Loading historical data...
Loading historical data...
Loading historical data...

Documentation

Showing up to 5 results
|